| time (UTC) | temp F | wind direction | speed MPH | gust MPH | rain 1hr in | rain 24hr in | rain mn in | humidity % | barometer mb |
| 20260507101204 | 46 | 228 | 3.0 | 3.0 | 0.00 | 0.00 | 0.00 | 91 | 1000.0 |
| 20260507100704 | 47 | 221 | 2.0 | 3.0 | 0.00 | 0.00 | 0.00 | 91 | 1000.0 |
| 20260507095704 | 47 | 235 | 2.0 | 3.0 | 0.00 | 0.00 | 0.00 | 91 | 1000.0 |
| 20260507095204 | 47 | 230 | 3.0 | 5.0 | 0.00 | 0.00 | 0.00 | 91 | 1000.0 |
| 20260507094703 | 47 | 245 | 3.0 | 5.0 | 0.00 | 0.00 | 0.00 | 90 | 1000.0 |
| 20260507094204 | 47 | 230 | 3.0 | 5.0 | 0.00 | 0.00 | 0.00 | 91 | 1000.0 |
| 20260507093205 | 47 | 238 | 3.0 | 5.0 | 0.00 | 0.00 | 0.00 | 91 | 1000.0 |
| 20260507092704 | 47 | 236 | 2.0 | 3.0 | 0.00 | 0.00 | 0.00 | 92 | 1000.0 |
| 20260507092204 | 47 | 237 | 2.0 | 5.0 | 0.00 | 0.00 | 0.00 | 92 | 1000.0 |
| 20260507090704 | 47 | 236 | 2.0 | 3.0 | 0.00 | 0.00 | 0.00 | 94 | 1000.0 |
| 20260507090203 | 47 | 230 | 2.0 | 3.0 | 0.00 | 0.00 | 0.00 | 94 | 1000.0 |
| 20260507085704 | 47 | 228 | 2.0 | 2.0 | 0.00 | 0.00 | 0.00 | 95 | 1000.0 |
| 20260507085203 | 47 | 219 | 1.0 | 2.0 | 0.00 | 0.00 | 0.00 | 95 | 1000.0 |
| 20260507084703 | 46 | 197 | 1.0 | 2.0 | 0.00 | 0.00 | 0.00 | 95 | 1000.0 |
| 20260507084204 | 46 | 197 | 1.0 | 2.0 | 0.00 | 0.00 | 0.00 | 95 | 1000.0 |
| 20260507083703 | 46 | 166 | 2.0 | 3.0 | 0.00 | 0.00 | 0.00 | 95 | 1000.0 |
| 20260507083203 | 47 | 162 | 3.0 | 3.0 | 0.00 | 0.00 | 0.00 | 94 | 1000.0 |
| 20260507082704 | 47 | 206 | 1.0 | 2.0 | 0.00 | 0.00 | 0.00 | 95 | 1000.0 |
| 20260507082203 | 47 | 195 | 0.0 | 0.0 | 0.00 | 0.00 | 0.00 | 95 | 1000.0 |
| 20260507081204 | 47 | 176 | 1.0 | 2.0 | 0.00 | 0.01 | 0.00 | 95 | 1000.0 |
| 20260507080704 | 47 | 210 | 2.0 | 3.0 | 0.00 | 0.01 | 0.00 | 95 | 1000.0 |
| 20260507080204 | 47 | 227 | 3.0 | 3.0 | 0.00 | 0.01 | 0.00 | 95 | 1000.0 |
| 20260507075703 | 47 | 225 | 2.0 | 2.0 | 0.00 | 0.01 | 0.00 | 95 | 1000.0 |
| 20260507075203 | 47 | 204 | 2.0 | 2.0 | 0.00 | 0.01 | 0.00 | 94 | 1000.0 |
| 20260507074704 | 47 | 181 | 2.0 | 3.0 | 0.00 | 0.01 | 0.00 | 94 | 1000.0 |
| 20260507074204 | 47 | 168 | 3.0 | 3.0 | 0.00 | 0.01 | 0.00 | 93 | 1000.0 |
| 20260507073703 | 48 | 171 | 2.0 | 2.0 | 0.00 | 0.01 | 0.00 | 93 | 1000.0 |
| 20260507073203 | 48 | 238 | 2.0 | 2.0 | 0.00 | 0.01 | 0.00 | 93 | 1000.0 |
| 20260507072704 | 48 | 223 | 2.0 | 2.0 | 0.00 | 0.01 | 0.00 | 93 | 1000.0 |
| 20260507072204 | 48 | 223 | 2.0 | 3.0 | 0.00 | 0.02 | 0.00 | 93 | 1000.0 |
| 20260507071703 | 48 | 229 | 2.0 | 3.0 | 0.00 | 0.02 | 0.00 | 93 | 1000.0 |
| 20260507071203 | 48 | 234 | 2.0 | 5.0 | 0.00 | 0.02 | 0.00 | 92 | 1000.0 |
| 20260507070704 | 49 | 259 | 3.0 | 6.0 | 0.00 | 0.03 | 0.00 | 92 | 1000.0 |
| 20260507065704 | 49 | 266 | 3.0 | 3.0 | 0.00 | 0.03 | 0.00 | 92 | 1000.0 |
| 20260507065203 | 49 | 263 | 2.0 | 3.0 | 0.00 | 0.04 | 0.00 | 91 | 1000.0 |
| 20260507064703 | 49 | 257 | 2.0 | 3.0 | 0.00 | 0.04 | 0.00 | 90 | 1000.0 |
| 20260507064204 | 49 | 235 | 2.0 | 3.0 | 0.00 | 0.05 | 0.00 | 90 | 1000.0 |
| 20260507063703 | 49 | 267 | 2.0 | 3.0 | 0.00 | 0.05 | 0.00 | 89 | 1000.0 |
| 20260507063203 | 50 | 284 | 2.0 | 3.0 | 0.00 | 0.05 | 0.00 | 89 | 1000.0 |
| 20260507062204 | 50 | 230 | 0.0 | 1.0 | 0.00 | 0.05 | 0.00 | 87 | 1000.0 |
| 20260507061704 | 50 | 254 | 2.0 | 2.0 | 0.00 | 0.06 | 0.00 | 87 | 1000.0 |
| 20260507060704 | 50 | 266 | 2.0 | 2.0 | 0.00 | 0.06 | 0.00 | 86 | 1000.0 |
| 20260507060203 | 50 | 262 | 1.0 | 2.0 | 0.00 | 0.08 | 0.00 | 85 | 1000.0 |
| 20260507055703 | 50 | 178 | 1.0 | 1.0 | 0.00 | 0.09 | 0.00 | 84 | 1000.0 |
| 20260507055204 | 51 | 184 | 1.0 | 1.0 | 0.00 | 0.10 | 0.00 | 82 | 1000.0 |
| 20260507054204 | 51 | 254 | 0.0 | 0.0 | 0.00 | 0.11 | 0.00 | 82 | 1000.0 |
| 20260507053703 | 51 | 254 | 0.0 | 2.0 | 0.00 | 0.11 | 0.00 | 83 | 1000.0 |
| 20260507053204 | 50 | 282 | 2.0 | 2.0 | 0.00 | 0.11 | 0.00 | 84 | 1000.0 |
| 20260507052204 | 50 | 283 | 2.0 | 3.0 | 0.00 | 0.11 | 0.00 | 86 | 1000.0 |
| 20260507051204 | 51 | 284 | 2.0 | 3.0 | 0.00 | 0.11 | 0.00 | 85 | 1000.0 |
| 20260507050703 | 52 | 282 | 2.0 | 3.0 | 0.00 | 0.11 | 0.00 | 83 | 1000.0 |
| 20260507050203 | 52 | 288 | 2.0 | 3.0 | 0.00 | 0.11 | 0.00 | 80 | 1000.0 |
| 20260507045703 | 52 | 280 | 2.0 | 2.0 | 0.00 | 0.11 | 0.11 | 78 | 1000.0 |
| 20260507045204 | 53 | 277 | 1.0 | 2.0 | 0.00 | 0.11 | 0.11 | 76 | 1000.0 |
| 20260507044704 | 53 | 271 | 0.0 | 2.0 | 0.00 | 0.12 | 0.11 | 75 | 1000.0 |
| 20260507044203 | 53 | 271 | 0.0 | 0.0 | 0.00 | 0.12 | 0.11 | 75 | 1000.0 |
| 20260507043703 | 53 | 271 | 0.0 | 2.0 | 0.00 | 0.12 | 0.11 | 74 | 1000.0 |
| 20260507043204 | 53 | 266 | 1.0 | 2.0 | 0.00 | 0.12 | 0.11 | 74 | 1000.0 |
| 20260507042704 | 53 | 276 | 1.0 | 2.0 | 0.00 | 0.12 | 0.11 | 73 | 1000.0 |
| 20260507042204 | 53 | 259 | 1.0 | 2.0 | 0.00 | 0.13 | 0.11 | 72 | 1000.0 |
| 20260507041703 | 53 | 285 | 0.0 | 2.0 | 0.00 | 0.14 | 0.11 | 71 | 1000.0 |
| 20260507041203 | 53 | 282 | 1.0 | 2.0 | 0.00 | 0.15 | 0.11 | 70 | 1000.0 |
| 20260507040704 | 53 | 282 | 0.0 | 1.0 | 0.00 | 0.16 | 0.11 | 69 | 1000.0 |
| 20260507040204 | 53 | 282 | 0.0 | 2.0 | 0.00 | 0.17 | 0.11 | 68 | 1000.0 |
| 20260507035703 | 53 | 280 | 0.0 | 0.0 | 0.00 | 0.18 | 0.11 | 68 | 1000.0 |
| 20260507035203 | 53 | 280 | 0.0 | 0.0 | 0.00 | 0.19 | 0.11 | 67 | 1000.0 |
| 20260507034706 | 54 | 280 | 0.0 | 0.0 | 0.00 | 0.19 | 0.11 | 66 | 1000.0 |
| 20260507033703 | 54 | 280 | 0.0 | 0.0 | 0.00 | 0.20 | 0.11 | 66 | 1000.0 |
| 20260507033204 | 54 | 280 | 0.0 | 0.0 | 0.00 | 0.21 | 0.11 | 66 | 1000.0 |
| 20260507032704 | 54 | 280 | 0.0 | 0.0 | 0.00 | 0.21 | 0.11 | 66 | 1000.0 |
| 20260507032203 | 54 | 280 | 0.0 | 2.0 | 0.00 | 0.21 | 0.11 | 66 | 1000.0 |
| 20260507031703 | 54 | 277 | 0.0 | 0.0 | 0.00 | 0.22 | 0.11 | 66 | 1000.0 |
| 20260507031204 | 54 | 277 | 1.0 | 3.0 | 0.00 | 0.22 | 0.11 | 66 | 1000.0 |
| 20260507030704 | 54 | 324 | 1.0 | 2.0 | 0.00 | 0.22 | 0.11 | 64 | 1000.0 |
| 20260507030204 | 54 | 292 | 0.0 | 1.0 | 0.00 | 0.22 | 0.11 | 61 | 1000.0 |
| 20260507025703 | 55 | 356 | 0.0 | 2.0 | 0.00 | 0.23 | 0.11 | 60 | 1000.0 |
| 20260507025203 | 55 | 352 | 2.0 | 3.0 | 0.00 | 0.23 | 0.11 | 60 | 1000.0 |
| 20260507024704 | 54 | 346 | 2.0 | 5.0 | 0.00 | 0.24 | 0.11 | 59 | 1000.0 |
| 20260507023204 | 55 | 325 | 2.0 | 3.0 | 0.00 | 0.24 | 0.11 | 60 | 1000.0 |
| 20260507022204 | 55 | 323 | 2.0 | 3.0 | 0.00 | 0.24 | 0.11 | 58 | 1000.0 |
| 20260507021204 | 55 | 328 | 1.0 | 2.0 | 0.00 | 0.24 | 0.11 | 58 | 1000.0 |
| 20260507020704 | 56 | 331 | 2.0 | 3.0 | 0.00 | 0.24 | 0.11 | 57 | 1000.0 |
| 20260507020204 | 56 | 350 | 1.0 | 3.0 | 0.00 | 0.24 | 0.11 | 56 | 1000.0 |
| 20260507015703 | 56 | 325 | 2.0 | 3.0 | 0.00 | 0.24 | 0.11 | 55 | 1000.0 |
| 20260507015203 | 57 | 333 | 2.0 | 3.0 | 0.00 | 0.24 | 0.11 | 52 | 1000.0 |
| 20260507014704 | 57 | 355 | 3.0 | 5.0 | 0.00 | 0.24 | 0.11 | 51 | 1000.0 |
| 20260507014204 | 57 | 342 | 2.0 | 8.0 | 0.00 | 0.24 | 0.11 | 50 | 1000.0 |
| 20260507013703 | 57 | 345 | 3.0 | 6.0 | 0.00 | 0.24 | 0.11 | 50 | 1000.0 |
| 20260507013203 | 57 | 3 | 4.0 | 8.0 | 0.00 | 0.24 | 0.11 | 50 | 1000.0 |
| 20260507012704 | 58 | 17 | 2.0 | 7.0 | 0.00 | 0.24 | 0.11 | 50 | 1000.0 |
| 20260507011703 | 58 | 9 | 1.0 | 5.0 | 0.00 | 0.24 | 0.11 | 50 | 1000.0 |
| 20260507011203 | 58 | 352 | 2.0 | 5.0 | 0.00 | 0.24 | 0.11 | 49 | 1000.0 |
| 20260507010704 | 58 | 357 | 2.0 | 5.0 | 0.00 | 0.24 | 0.11 | 48 | 1000.0 |
| 20260507010204 | 59 | 12 | 2.0 | 6.0 | 0.00 | 0.24 | 0.11 | 48 | 1000.0 |
| 20260507005703 | 59 | 343 | 3.0 | 8.0 | 0.00 | 0.24 | 0.11 | 47 | 1000.0 |
| 20260507005205 | 59 | 11 | 2.0 | 5.0 | 0.00 | 0.24 | 0.11 | 47 | 1000.0 |
| 20260507004704 | 59 | 22 | 3.0 | 8.0 | 0.00 | 0.24 | 0.11 | 47 | 1000.0 |
| 20260507003704 | 59 | 357 | 5.0 | 10.0 | 0.00 | 0.24 | 0.11 | 45 | 1000.0 |
| 20260507003203 | 60 | 4 | 5.0 | 9.0 | 0.00 | 0.24 | 0.11 | 45 | 1000.0 |
| 20260507002704 | 60 | 31 | 2.0 | 6.0 | 0.00 | 0.24 | 0.11 | 45 | 1000.0 |
| 20260507002204 | 60 | 14 | 3.0 | 8.0 | 0.00 | 0.24 | 0.11 | 44 | 1000.0 |
| 20260507001704 | 61 | 5 | 4.0 | 9.0 | 0.00 | 0.24 | 0.11 | 44 | 1000.0 |
| 20260507001203 | 61 | 13 | 2.0 | 7.0 | 0.00 | 0.24 | 0.11 | 44 | 1000.0 |
| 20260507000703 | 61 | 348 | 5.0 | 7.0 | 0.00 | 0.24 | 0.11 | 43 | 1000.0 |
| 20260506235704 | 61 | 348 | 5.0 | 7.0 | 0.00 | 0.24 | 0.11 | 44 | 1000.0 |
| 20260506235203 | 61 | 8 | 4.0 | 9.0 | 0.00 | 0.24 | 0.11 | 43 | 1000.0 |
| 20260506234703 | 61 | 30 | 5.0 | 10.0 | 0.00 | 0.24 | 0.11 | 42 | 1000.0 |
| 20260506234204 | 62 | 8 | 3.0 | 7.0 | 0.00 | 0.24 | 0.11 | 44 | 1000.0 |
| 20260506233704 | 61 | 8 | 5.0 | 9.0 | 0.00 | 0.24 | 0.11 | 42 | 1000.0 |
| 20260506232704 | 62 | 4 | 5.0 | 12.0 | 0.00 | 0.24 | 0.11 | 43 | 1000.0 |
| 20260506231703 | 62 | 15 | 5.0 | 10.0 | 0.00 | 0.25 | 0.11 | 42 | 1000.0 |
| 20260506231204 | 62 | 357 | 4.0 | 7.0 | 0.00 | 0.25 | 0.11 | 43 | 1000.0 |
| 20260506230703 | 62 | 14 | 5.0 | 10.0 | 0.00 | 0.25 | 0.11 | 40 | 1000.0 |
| 20260506230203 | 62 | 14 | 5.0 | 10.0 | 0.00 | 0.25 | 0.11 | 41 | 1000.0 |
| 20260506225204 | 62 | 11 | 5.0 | 10.0 | 0.00 | 0.27 | 0.11 | 42 | 1000.0 |
| 20260506224703 | 62 | 29 | 5.0 | 18.0 | 0.00 | 0.28 | 0.11 | 41 | 1000.0 |
| 20260506224204 | 62 | 16 | 7.0 | 17.0 | 0.00 | 0.28 | 0.11 | 41 | 1000.0 |
| 20260506223703 | 63 | 17 | 5.0 | 9.0 | 0.00 | 0.28 | 0.11 | 41 | 1000.0 |
| 20260506223203 | 63 | 350 | 4.0 | 7.0 | 0.00 | 0.28 | 0.11 | 39 | 1000.0 |
| 20260506222703 | 64 | 346 | 5.0 | 9.0 | 0.00 | 0.28 | 0.11 | 40 | 1000.0 |
| 20260506222203 | 63 | 7 | 6.0 | 10.0 | 0.00 | 0.28 | 0.11 | 41 | 1000.0 |
| 20260506221704 | 63 | 335 | 6.0 | 9.0 | 0.00 | 0.28 | 0.11 | 42 | 1000.0 |
| 20260506221204 | 63 | 0 | 6.0 | 10.0 | 0.00 | 0.29 | 0.11 | 42 | 1000.0 |
| 20260506220703 | 63 | 11 | 4.0 | 12.0 | 0.00 | 0.29 | 0.11 | 43 | 1000.0 |
| 20260506220203 | 63 | 325 | 7.0 | 14.0 | 0.00 | 0.29 | 0.11 | 43 | 1000.0 |
| 20260506215704 | 63 | 346 | 7.0 | 13.0 | 0.00 | 0.29 | 0.11 | 41 | 1000.0 |
| 20260506215204 | 63 | 347 | 5.0 | 9.0 | 0.00 | 0.30 | 0.11 | 42 | 1000.0 |
| 20260506214704 | 63 | 352 | 6.0 | 14.0 | 0.00 | 0.30 | 0.11 | 41 | 1000.0 |
| 20260506213703 | 64 | 346 | 6.0 | 15.0 | 0.00 | 0.31 | 0.11 | 44 | 1000.0 |
| 20260506213203 | 64 | 330 | 6.0 | 14.0 | 0.00 | 0.31 | 0.11 | 42 | 1000.0 |
| 20260506212704 | 64 | 329 | 5.0 | 9.0 | 0.00 | 0.31 | 0.11 | 40 | 1000.0 |
| 20260506212204 | 63 | 341 | 5.0 | 9.0 | 0.00 | 0.31 | 0.11 | 42 | 1000.0 |
| 20260506211704 | 64 | 1 | 4.0 | 9.0 | 0.00 | 0.31 | 0.11 | 43 | 1000.0 |
| 20260506211203 | 63 | 335 | 6.0 | 10.0 | 0.00 | 0.31 | 0.11 | 44 | 1000.0 |
| 20260506210704 | 63 | 314 | 4.0 | 7.0 | 0.00 | 0.31 | 0.11 | 43 | 1000.0 |
| 20260506210203 | 63 | 11 | 3.0 | 7.0 | 0.00 | 0.31 | 0.11 | 43 | 1000.0 |
| 20260506205204 | 64 | 26 | 2.0 | 8.0 | 0.00 | 0.31 | 0.11 | 44 | 1000.0 |
| 20260506204204 | 64 | 330 | 4.0 | 10.0 | 0.00 | 0.31 | 0.11 | 42 | 1000.0 |
| 20260506202704 | 63 | 348 | 6.0 | 12.0 | 0.00 | 0.31 | 0.11 | 44 | 1000.0 |
| 20260506202204 | 63 | 318 | 6.0 | 14.0 | 0.00 | 0.31 | 0.11 | 44 | 1000.0 |
| 20260506201704 | 63 | 335 | 5.0 | 8.0 | 0.00 | 0.31 | 0.11 | 45 | 1000.0 |
| 20260506201203 | 63 | 303 | 5.0 | 9.0 | 0.00 | 0.31 | 0.11 | 44 | 1000.0 |
| 20260506200703 | 63 | 0 | 7.0 | 14.0 | 0.00 | 0.31 | 0.11 | 43 | 1000.0 |
| 20260506200204 | 63 | 339 | 1.0 | 6.0 | 0.00 | 0.31 | 0.11 | 43 | 1000.0 |
| 20260506195704 | 63 | 359 | 6.0 | 8.0 | 0.00 | 0.31 | 0.11 | 42 | 1000.0 |
| 20260506195204 | 63 | 316 | 6.0 | 10.0 | 0.00 | 0.31 | 0.11 | 41 | 1000.0 |
| 20260506194703 | 63 | 336 | 5.0 | 14.0 | 0.00 | 0.31 | 0.11 | 41 | 1000.0 |
| 20260506194203 | 63 | 342 | 7.0 | 14.0 | 0.00 | 0.31 | 0.11 | 41 | 1000.0 |
| 20260506193704 | 63 | 358 | 3.0 | 8.0 | 0.00 | 0.31 | 0.11 | 40 | 1000.0 |
| 20260506193204 | 62 | 325 | 9.0 | 16.0 | 0.00 | 0.31 | 0.11 | 40 | 1000.0 |
| 20260506192704 | 63 | 332 | 7.0 | 15.0 | 0.00 | 0.31 | 0.11 | 41 | 1000.0 |
| 20260506192204 | 63 | 329 | 6.0 | 10.0 | 0.00 | 0.31 | 0.11 | 42 | 1000.0 |
| 20260506191703 | 62 | 314 | 6.0 | 12.0 | 0.00 | 0.31 | 0.11 | 43 | 1000.0 |
| 20260506191204 | 62 | 316 | 7.0 | 13.0 | 0.00 | 0.31 | 0.11 | 41 | 1000.0 |
| 20260506190203 | 62 | 347 | 6.0 | 9.0 | 0.00 | 0.31 | 0.11 | 42 | 1000.0 |
| 20260506185704 | 62 | 353 | 4.0 | 9.0 | 0.00 | 0.31 | 0.11 | 41 | 1000.0 |
| 20260506185203 | 62 | 358 | 6.0 | 12.0 | 0.00 | 0.31 | 0.11 | 41 | 1000.0 |
| 20260506184706 | 62 | 315 | 7.0 | 16.0 | 0.00 | 0.31 | 0.11 | 41 | 1000.0 |
| 20260506182704 | 62 | 341 | 6.0 | 12.0 | 0.00 | 0.31 | 0.11 | 44 | 1000.0 |
| 20260506181703 | 61 | 347 | 6.0 | 12.0 | 0.00 | 0.31 | 0.11 | 50 | 1000.0 |
| 20260506181204 | 60 | 330 | 4.0 | 15.0 | 0.00 | 0.31 | 0.11 | 48 | 1000.0 |
| 20260506180203 | 61 | 298 | 4.0 | 9.0 | 0.00 | 0.31 | 0.11 | 52 | 1000.0 |
| 20260506175704 | 61 | 306 | 6.0 | 12.0 | 0.00 | 0.31 | 0.11 | 50 | 1000.0 |
| 20260506175203 | 60 | 38 | 5.0 | 10.0 | 0.00 | 0.31 | 0.11 | 50 | 1000.0 |
| 20260506174703 | 60 | 307 | 7.0 | 13.0 | 0.00 | 0.31 | 0.11 | 52 | 1000.0 |
| 20260506174204 | 60 | 319 | 6.0 | 14.0 | 0.00 | 0.31 | 0.11 | 51 | 1000.0 |
| 20260506173704 | 60 | 329 | 2.0 | 7.0 | 0.00 | 0.31 | 0.11 | 53 | 1000.0 |
| 20260506173203 | 60 | 301 | 5.0 | 13.0 | 0.00 | 0.31 | 0.11 | 50 | 1000.0 |
| 20260506172704 | 59 | 313 | 6.0 | 10.0 | 0.00 | 0.31 | 0.11 | 54 | 1000.0 |
| 20260506172203 | 59 | 314 | 5.0 | 9.0 | 0.00 | 0.31 | 0.11 | 51 | 1000.0 |
| 20260506171703 | 59 | 317 | 6.0 | 12.0 | 0.00 | 0.31 | 0.11 | 52 | 1000.0 |
| 20260506171204 | 59 | 13 | 5.0 | 9.0 | 0.00 | 0.31 | 0.11 | 53 | 1000.0 |
| 20260506170704 | 58 | 310 | 5.0 | 9.0 | 0.00 | 0.31 | 0.11 | 51 | 1000.0 |
| 20260506170203 | 58 | 328 | 7.0 | 13.0 | 0.00 | 0.31 | 0.11 | 51 | 1000.0 |
| 20260506165703 | 59 | 327 | 3.0 | 9.0 | 0.00 | 0.31 | 0.11 | 53 | 1000.0 |
| 20260506165204 | 58 | 348 | 7.0 | 14.0 | 0.00 | 0.31 | 0.11 | 56 | 1000.0 |
| 20260506164704 | 58 | 337 | 6.0 | 9.0 | 0.00 | 0.31 | 0.11 | 52 | 1000.0 |
| 20260506164203 | 58 | 340 | 3.0 | 9.0 | 0.00 | 0.31 | 0.11 | 54 | 1000.0 |
| 20260506163704 | 58 | 20 | 3.0 | 7.0 | 0.00 | 0.31 | 0.11 | 54 | 1000.0 |
| 20260506163203 | 57 | 315 | 5.0 | 9.0 | 0.00 | 0.31 | 0.11 | 55 | 1000.0 |
| 20260506162204 | 58 | 304 | 3.0 | 10.0 | 0.00 | 0.31 | 0.11 | 55 | 1000.0 |
| 20260506161703 | 57 | 340 | 6.0 | 10.0 | 0.00 | 0.31 | 0.11 | 54 | 1000.0 |
| 20260506161204 | 57 | 322 | 5.0 | 8.0 | 0.00 | 0.31 | 0.11 | 54 | 1000.0 |
| 20260506160704 | 57 | 17 | 5.0 | 10.0 | 0.00 | 0.31 | 0.11 | 55 | 1000.0 |
| 20260506160204 | 57 | 342 | 5.0 | 10.0 | 0.00 | 0.31 | 0.11 | 55 | 1000.0 |
| 20260506155703 | 57 | 309 | 5.0 | 10.0 | 0.00 | 0.31 | 0.11 | 54 | 1000.0 |
| 20260506155204 | 57 | 14 | 3.0 | 6.0 | 0.00 | 0.31 | 0.11 | 55 | 1000.0 |
| 20260506154204 | 57 | 352 | 4.0 | 9.0 | 0.00 | 0.31 | 0.11 | 54 | 1000.0 |
| 20260506153703 | 57 | 337 | 3.0 | 9.0 | 0.00 | 0.31 | 0.11 | 55 | 1000.0 |
| 20260506153204 | 57 | 348 | 2.0 | 7.0 | 0.00 | 0.31 | 0.11 | 55 | 1000.0 |
| 20260506152704 | 57 | 28 | 4.0 | 7.0 | 0.00 | 0.31 | 0.11 | 55 | 1000.0 |
| 20260506152203 | 57 | 345 | 2.0 | 8.0 | 0.00 | 0.31 | 0.11 | 54 | 1000.0 |
| 20260506151204 | 56 | 5 | 5.0 | 8.0 | 0.00 | 0.31 | 0.11 | 54 | 1000.0 |
| 20260506150703 | 56 | 340 | 3.0 | 6.0 | 0.00 | 0.31 | 0.11 | 58 | 1000.0 |
| 20260506150203 | 56 | 349 | 4.0 | 7.0 | 0.00 | 0.31 | 0.11 | 58 | 1000.0 |
| 20260506145704 | 56 | 7 | 2.0 | 7.0 | 0.00 | 0.31 | 0.11 | 59 | 1000.0 |
| 20260506144703 | 55 | 351 | 3.0 | 6.0 | 0.00 | 0.31 | 0.11 | 63 | 1000.0 |
| 20260506143704 | 55 | 1 | 3.0 | 7.0 | 0.00 | 0.31 | 0.11 | 65 | 1000.0 |
| 20260506143203 | 55 | 356 | 3.0 | 8.0 | 0.00 | 0.31 | 0.11 | 66 | 1000.0 |
| 20260506142704 | 54 | 11 | 2.0 | 6.0 | 0.00 | 0.31 | 0.11 | 66 | 1000.0 |
| 20260506142203 | 54 | 15 | 4.0 | 8.0 | 0.00 | 0.31 | 0.11 | 63 | 1000.0 |
| 20260506141703 | 54 | 3 | 3.0 | 6.0 | 0.00 | 0.31 | 0.11 | 67 | 1000.0 |
| 20260506141204 | 53 | 55 | 2.0 | 6.0 | 0.00 | 0.31 | 0.11 | 68 | 1000.0 |
| 20260506140704 | 53 | 30 | 3.0 | 7.0 | 0.00 | 0.31 | 0.11 | 67 | 1000.0 |
| 20260506140203 | 53 | 39 | 3.0 | 5.0 | 0.00 | 0.31 | 0.11 | 71 | 1000.0 |
| 20260506135203 | 52 | 73 | 1.0 | 2.0 | 0.00 | 0.31 | 0.11 | 78 | 1000.0 |
| 20260506134704 | 52 | 28 | 1.0 | 5.0 | 0.00 | 0.31 | 0.11 | 75 | 1000.0 |
| 20260506133204 | 51 | 350 | 2.0 | 5.0 | 0.00 | 0.31 | 0.11 | 79 | 1000.0 |
| 20260506132704 | 51 | 1 | 1.0 | 5.0 | 0.00 | 0.31 | 0.11 | 81 | 1000.0 |
| 20260506132203 | 50 | 13 | 2.0 | 6.0 | 0.00 | 0.31 | 0.11 | 81 | 1000.0 |
| 20260506131703 | 50 | 31 | 0.0 | 3.0 | 0.00 | 0.31 | 0.11 | 85 | 1000.0 |
| 20260506131204 | 50 | 12 | 3.0 | 6.0 | 0.00 | 0.31 | 0.11 | 83 | 1000.0 |
| 20260506130704 | 49 | 3 | 2.0 | 5.0 | 0.00 | 0.31 | 0.11 | 87 | 1000.0 |
| 20260506130203 | 49 | 11 | 2.0 | 3.0 | 0.00 | 0.31 | 0.11 | 89 | 1000.0 |
| 20260506125704 | 49 | 325 | 2.0 | 3.0 | 0.00 | 0.31 | 0.11 | 90 | 1000.0 |
| 20260506125203 | 49 | 332 | 2.0 | 3.0 | 0.00 | 0.31 | 0.11 | 90 | 1000.0 |
| 20260506123703 | 48 | 326 | 3.0 | 6.0 | 0.00 | 0.31 | 0.11 | 90 | 1000.0 |
| 20260506122204 | 48 | 325 | 4.0 | 7.0 | 0.00 | 0.31 | 0.11 | 92 | 1000.0 |
| 20260506121703 | 48 | 342 | 3.0 | 8.0 | 0.00 | 0.31 | 0.11 | 92 | 1000.0 |
| 20260506121203 | 47 | 307 | 4.0 | 9.0 | 0.00 | 0.31 | 0.11 | 93 | 1000.0 |
| 20260506120704 | 48 | 327 | 4.0 | 7.0 | 0.00 | 0.31 | 0.11 | 95 | 1000.0 |
| 20260506120204 | 48 | 309 | 4.0 | 9.0 | 0.00 | 0.31 | 0.11 | 95 | 1000.0 |
| 20260506115703 | 48 | 294 | 3.0 | 5.0 | 0.00 | 0.31 | 0.11 | 94 | 1000.0 |
| 20260506115203 | 48 | 289 | 3.0 | 7.0 | 0.00 | 0.31 | 0.11 | 94 | 1000.0 |
| 20260506114704 | 48 | 310 | 3.0 | 7.0 | 0.00 | 0.31 | 0.11 | 94 | 1000.0 |
| 20260506113703 | 48 | 324 | 4.0 | 7.0 | 0.00 | 0.31 | 0.11 | 93 | 1000.0 |
| 20260506113203 | 48 | 322 | 4.0 | 8.0 | 0.00 | 0.31 | 0.11 | 93 | 1000.0 |
| 20260506112704 | 48 | 323 | 3.0 | 9.0 | 0.00 | 0.31 | 0.11 | 93 | 1000.0 |
| 20260506112204 | 48 | 324 | 5.0 | 9.0 | 0.00 | 0.31 | 0.11 | 94 | 1000.0 |
| 20260506111703 | 48 | 326 | 3.0 | 8.0 | 0.00 | 0.31 | 0.11 | 94 | 1000.0 |
| 20260506111204 | 48 | 331 | 3.0 | 6.0 | 0.00 | 0.31 | 0.11 | 94 | 1000.0 |
| 20260506110704 | 48 | 299 | 2.0 | 3.0 | 0.00 | 0.31 | 0.11 | 94 | 1000.0 |
| 20260506105704 | 48 | 349 | 2.0 | 5.0 | 0.00 | 0.31 | 0.11 | 94 | 1000.0 |
| 20260506105203 | 48 | 350 | 2.0 | 7.0 | 0.00 | 0.31 | 0.11 | 95 | 1000.0 |
| 20260506104703 | 48 | 332 | 2.0 | 3.0 | 0.00 | 0.31 | 0.11 | 95 | 1000.0 |
| 20260506104203 | 48 | 323 | 2.0 | 2.0 | 0.00 | 0.31 | 0.11 | 95 | 1000.0 |
| 20260506103704 | 48 | 288 | 2.0 | 3.0 | 0.00 | 0.31 | 0.11 | 95 | 1000.0 |
| 20260506103204 | 48 | 7 | 0.0 | 2.0 | 0.00 | 0.31 | 0.11 | 95 | 1000.0 |
| 20260506102703 | 48 | 272 | 2.0 | 6.0 | 0.00 | 0.31 | 0.11 | 95 | 1000.0 |
| 20260506102203 | 48 | 297 | 2.0 | 7.0 | 0.00 | 0.31 | 0.11 | 96 | 1000.0 |